Location: Berua Church
(35.0423°N, 88.5987°W)
Time: 13:24:41
(UTC+00:00)

Cosmos 1500 - Pass Details

Date: 08 December 2019
Orbit: 499 x 520 km, 82.5° (Epoch: 27 January)

Event Time Altitude Azimuth Distance (km) Brightness Sun altitude
Rises 23:08:40 0° 1° (N) 2,611 6.5 -5.7°
Reaches altitude 10° 23:10:54 10° 9° (N) 1,719 5.5 -6.1°
Maximum altitude 23:14:27 40° 80° (E) 752 3.6 -6.7°
Drops below altitude 10° 23:17:58 10° 151° (SSE) 1,699 5.8 -7.4°
Sets 23:20:09 0° 159° (SSE) 2,576 6.8 -7.8°
